TimeMDT,TemperatureF,Dew PointF,Humidity,Sea Level PressureIn,VisibilityMPH,Wind Direction,Wind SpeedMPH,Gust SpeedMPH,PrecipitationIn,Events,Conditions,WindDirDegrees,DateUTC
12:53 AM,66.9,48.0,51,30.01,10.0,West,3.5,-,N/A,,Clear,260,2013-08-30 06:53:00
1:53 AM,64.9,48.9,56,30.01,10.0,West,5.8,-,N/A,,Clear,270,2013-08-30 07:53:00
2:53 AM,64.0,48.9,58,30.01,10.0,West,4.6,-,N/A,,Clear,260,2013-08-30 08:53:00
3:53 AM,62.1,48.0,60,30.02,10.0,Calm,Calm,-,N/A,,Clear,0,2013-08-30 09:53:00
4:53 AM,62.1,48.0,60,30.02,10.0,Calm,Calm,-,N/A,,Clear,0,2013-08-30 10:53:00
5:53 AM,60.1,48.0,64,30.04,10.0,WNW,4.6,-,N/A,,Clear,290,2013-08-30 11:53:00
6:53 AM,61.0,48.0,62,30.05,10.0,WNW,4.6,-,N/A,,Clear,290,2013-08-30 12:53:00
7:53 AM,66.0,50.0,56,30.06,10.0,WNW,3.5,-,N/A,,Clear,300,2013-08-30 13:53:00
8:53 AM,72.0,55.0,55,30.07,10.0,Calm,Calm,-,N/A,,Partly Cloudy,0,2013-08-30 14:53:00
9:53 AM,75.9,48.0,37,30.06,10.0,SE,3.5,-,N/A,,Clear,140,2013-08-30 15:53:00
10:53 AM,80.1,48.9,34,30.05,10.0,SE,6.9,-,N/A,,Clear,140,2013-08-30 16:53:00
11:53 AM,82.9,48.9,31,30.04,10.0,SE,4.6,-,N/A,,Clear,130,2013-08-30 17:53:00
12:53 PM,86.0,50.0,29,30.01,10.0,Variable,3.5,-,N/A,,Clear,0,2013-08-30 18:53:00
1:53 PM,88.0,46.0,23,29.98,10.0,ESE,5.8,-,N/A,,Clear,120,2013-08-30 19:53:00
2:53 PM,90.0,43.0,19,29.94,10.0,Calm,Calm,-,N/A,,Clear,0,2013-08-30 20:53:00
3:53 PM,91.0,46.0,21,29.92,10.0,SSE,8.1,-,N/A,,Clear,150,2013-08-30 21:53:00
4:53 PM,91.9,42.1,18,29.90,10.0,SE,5.8,-,N/A,,Clear,130,2013-08-30 22:53:00
5:53 PM,91.0,41.0,17,29.90,10.0,ENE,5.8,-,N/A,,Clear,70,2013-08-30 23:53:00
6:53 PM,84.9,46.0,26,29.92,10.0,NW,10.4,-,N/A,,Clear,320,2013-08-31 00:53:00
7:53 PM,80.1,46.0,30,29.92,10.0,NW,5.8,-,N/A,,Clear,320,2013-08-31 01:53:00
8:53 PM,80.1,42.1,26,29.92,10.0,NW,6.9,-,N/A,,Clear,320,2013-08-31 02:53:00
9:53 PM,78.1,44.1,30,29.93,10.0,Calm,Calm,-,N/A,,Clear,0,2013-08-31 03:53:00
10:53 PM,75.9,46.0,35,29.95,10.0,Calm,Calm,-,N/A,,Mostly Cloudy,0,2013-08-31 04:53:00
11:53 PM,75.0,46.9,37,29.96,10.0,Calm,Calm,-,0.00,,Partly Cloudy,0,2013-08-31 05:53:00